Find Starlink 36378

NORAD ID: 68025 Int'l Des: 2026-040 Owner: SPXS Country: US Constellation: starlink operational
LEOCIRCULARRETROGRADE

リアルタイム位置

3D地球を読み込み中...

Starlink 36378について

説明を読み込み中...

次回通過

Passes for default location (London). Set your location on the main map for personalized predictions.

高度履歴

Loading altitude history...

軌道要素

1 68025U 26040L 26106.61392053 .00016479 00000-0 49821-3 0 9991
2 68025 97.2864 56.1469 0002139 97.7983 262.3503 15.34290386 7276
Epoch: Apr 16, 2026 • Age: 11 hours

現在のステータス

高度 470.6 km
速度 7.63 km/s
衛星直下点 -17.66°S, 170.5°W
打ち上げ日 Mar 1, 2026
運用期間 0.1 years
タイプ internet

技術仕様

分類 Payload
質量 575.00 kg
乾燥質量 530.00 kg
総質量 575.00 kg
長さ 0.30 m
直径 4.10 m
スパン 29.00 m
形状 Box + pan
製造者 SPXS
バスタイプ Starlink V2MO
フェーズステータス In Orbit
所有者/国 SPXS/US

Most Searched